Regional Weather Roundup
Issued by NWS

Home | Current Version | Previous Version | Graphics & Text | Print | Product List | Glossary On
Versions: 1 2 3 4 5 6 7 8 9 10 11 12 13 14 15 16 17 18 19 20 21 22 23 24 25 26 27 28 29 30 31 32 33 34 35 36 37 38 39 40 41 42 43 44 45 46 47 48 49 50
551
ASUS43 KFSD 181010
RWRSD

WEATHER ROUNDUP FOR SOUTH DAKOTA
NATIONAL WEATHER SERVICE SIOUX FALLS SD
500 AM CDT WED OCT 18 2017

NOTE: "FAIR" INDICATES FEW OR NO CLOUDS BELOW 12,000 FEET WITH NO
SIGNIFICANT WEATHER AND/OR OBSTRUCTIONS TO VISIBILITY.


SDZ001>005-009-010-012>017-181100-
NORTHWEST AND NORTH CENTRAL SOUTH DAKOTA

CITY           SKY/WX    TMP DP  RH WIND       PRES   REMARKS
BUFFALO          N/A     62  22  21 NW38G45   29.77R
FAITH            N/A     56  24  29 NW15      29.76R
MOBRIDGE       PTCLDY    43  38  82 CALM      29.68R
$$

SDZ012>016-024>037-041>051-057-063-072>074-181100-
SOUTHWEST AND SOUTH CENTRAL SOUTH DAKOTA

CITY           SKY/WX    TMP DP  RH WIND       PRES   REMARKS
RAPID CTY ARPT CLOUDY    56  24  29 N12       29.82R
PIERRE         CLOUDY    50  31  48 W3        29.71R
CUSTER         CLOUDY    55  13  18 W8        29.94S
ELLSWORTH AFB  PTCLDY    64  21  19 N8        29.81R
PHILIP         PTCLDY    50  31  48 W10       29.76R
PINE RIDGE     CLOUDY    42  27  55 SW5       29.85R
SPEARFISH      FAIR      66  19  16 W13G21    29.89R
WINNER         FAIR      57  30  35 SW13      29.73S
$$

SDZ004>011-016>023-039-040-181100-
NORTHEAST SOUTH DAKOTA

CITY           SKY/WX    TMP DP  RH WIND       PRES   REMARKS
ABERDEEN       MOCLDY    45  40  82 S10       29.68F
WATERTOWN      CLOUDY    46  43  89 SE9       29.73S
BROOKINGS      CLEAR     50  43  77 S13       29.78R
SISSETON         N/A     60  41  49 SW20      29.65F
$$

SDZ017-020-022-023-036>040-048>070-181100-
SOUTHEAST SOUTH DAKOTA

CITY           SKY/WX    TMP DP  RH WIND       PRES   REMARKS
SIOUX FALLS    PTCLDY    55  46  71 S12       29.80F
HURON          CLOUDY    49  40  71 S12       29.71F
CHAMBERLAIN    CLOUDY    51  37  60 CALM      29.73R
MITCHELL       CLOUDY    50  41  71 S8        29.75R
YANKTON        CLEAR     55  44  66 SE5       29.79
$$

ABBREVIATIONS USED IN REMARKS
   TC - TEMPERATURE IN CELSIUS
  WCI - WIND CHILL INDEX
   HX - HEAT INDEX
  VSB - VISIBILITY





USA.gov is the U.S. government's official web portal to all federal, state and local government web resources and services.